Location: ????????
(55.0559°N, 39.1270°E)
Time: 00:14:03
(UTC+00:00)

SWARM C - Pass Details

Date: 15 November 2025
Orbit: 425 x 428 km, 87.3° (Epoch: 12 December)

Event Time Altitude Azimuth Distance (km) Brightness Sun altitude
Rises 02:55:17 0° 184° (S) 2,404 8.4 -16.9°
Reaches altitude 10° 02:57:19 10° 185° (S) 1,541 7.3 -16.6°
Maximum altitude 03:00:39 82° 274° (W) 447 4.4 -16.1°
Drops below altitude 10° 03:04:01 10° 2° (N) 1,552 7.2 -15.7°
Sets 03:06:04 0° 3° (N) 2,425 8.2 -15.4°
